Terminal Aerodrome Forecast
Issued by NWS

Current Version | Previous Version | Graphics & Text | Print | Product List | Glossary On
Versions: 1 2 3 4 5 6 7 8 9 10 11 12 13 14 15 16 17 18 19 20 21 22 23 24 25 26 27 28
000
FTUS41 KILN 270200 AAB
TAFLUK
TAF AMD
KLUK 270245Z 2703/2724 21005KT P6SM -SHRA VCTS OVC040CB
      TEMPO 2703/2705 22010G25KT 2SM -TSRA OVC025CB
     FM270800 20008KT P6SM VCSH SCT080 OVC100
     FM271700 24011G19KT P6SM -SHRA VCTS BKN035CB
     FM272200 27014G22KT P6SM BKN040=

USA.gov is the U.S. government's official web portal to all federal, state and local government web resources and services.